Regional Weather Roundup
Issued by NWS Newport/Morehead, NC

Current Version | Previous Version | Graphics & Text | Print | Product List | Glossary On
Versions: 1 2 3 4 5 6 7 8 9 10 11 12 13 14 15 16 17 18 19 20 21 22 23 24 25 26 27 28 29 30 31 32 33 34 35 36 37 38 39 40 41 42 43 44 45 46 47 48 49 50
170 ASUS42 KMHX 232113 RWRMHX WEATHER ROUNDUP FOR EASTERN NORTH CAROLINA NATIONAL WEATHER SERVICE NEWPORT/MOREHEAD CITY NC 500 PM EDT MON MAY 23 2016 NOTE: "FAIR" INDICATES FEW OR NO CLOUDS BELOW 12,000 FEET WITH NO SIGNIFICANT WEATHER AND/OR OBSTRUCTIONS TO VISIBILITY NCZ015>017-031-032-045>047-102-103-232200- NORTH COAST CITY SKY/WX TMP DP RH WIND PRES REMARKS EDENTON CLOUDY 65 65 100 N8 29.92S ELIZABETH CITY CLOUDY 64 51 62 N17 29.90S KITTY HAWK CLEAR 62 52 69 N6G18 29.89R MANTEO PTSUNNY 62 55 77 N14G20 29.90S $$ NCZ045>047-081-094-103-104-232200- CENTRAL COAST CITY SKY/WX TMP DP RH WIND PRES REMARKS FRISCO LGT RAIN 60 58 92 N8 29.89R $$ NCZ095-097-098-100-101-232200- SOUTHERN COAST CITY SKY/WX TMP DP RH WIND PRES REMARKS BEAUFORT PTSUNNY 67 57 70 NW15 29.91R CEDAR ISLAND NOT AVBL JACKSONVILLE MOSUNNY 65 58 78 NW10 29.92S PINEY ISLAND NOT AVBL WILMINGTON CLOUDY 68 54 60 N10 29.94R $$ NCZ011>013-027>030-043-044-078>080-089-090>093-098-232200- COASTAL PLAIN CITY SKY/WX TMP DP RH WIND PRES REMARKS AHOSKIE CLOUDY 59 56 89 CALM 29.94F CLINTON SUNNY 65 56 74 NW6 29.96S ELIZABETHTOWN DRIZZLE 66 55 66 CALM 29.96R GOLDSBORO CLOUDY 65 59 80 N8 29.93S GREENVILLE CLOUDY 63 55 77 N7 29.95S HAVELOCK LGT RAIN 67 57 70 N12 29.92S KENANSVILLE CLOUDY 63 55 75 CALM 29.95S KINSTON PTSUNNY 68 54 60 N14 29.94S NEW BERN CLOUDY 64 56 75 N7 29.93S RICHLANDS PTSUNNY 65 60 84 W7 29.94S ROCKY MOUNT PTSUNNY 65 56 72 VRB5 29.95S WASHINGTON MOSUNNY 64 55 72 NE10 29.92S WHITEVILLE CLOUDY 68 55 61 CALM 29.95S $$ AMZ130-135-150-152-154-156-158-170-250-252-270-ANZ085-086-088-633-658-670-232200- MARINE OBSERVATIONS STATION/POSITION TIME TEMP WIND PRES WAVE SWELL AIR SEA DIR/SP/G HT/PER HT/PER (UTC) (F) (DEG/KT/KT) (MB) (FT/S) (FT/S) CHESAPEAKE LIGHT 2100 59 20/ 20/ 22 1012.6 64 E VA BEACH 2050 56 57 360/ 19/ 21 1010.6 7/ 9 7/ 9 DUCK 2000 58 62 10/ 17/ 20 1011.2 2 E DUCK 2011 62 N/A 5/ 8 2/11 OREGON INLET 2000 60 64 340/ 13/ 19 1011.9 13E OREGON INLT 2100 62 N/A 6/ 9 5/ 9 HATTERAS CG 2000 62 67 310/ 15/ 18 1011.2 DIAMOND BUOY 2050 62 67 310/ 16/ 19 1011.7 3/11 2/11 CAPE LOOKOUT 2100 66 310/ 12/ 15 1012.2 BEAUFORT LAB 2000 65 68 330/ 9/ 14 1011.7 30 SE NEW RVR IN 2025 73 N/A 3/ 4 27 SE WRIGHTSVLE 2008 68 73 300/ 14/ 17 1013.6 5 SE WRIGHTSVLE 2008 68 72 330/ 12/ 16 1014.1 225 S CAPE HAT 1950 73 77 300/ 6/ 12 1012.9 5/ 7 5/ 7 41 SE CHARLESTON 2050 72 76 300/ 6/ 8 1013.9 2/ 9 2/ 9 $$

USA.gov is the U.S. government's official web portal to all federal, state and local government web resources and services.